Tracking 19177 objects as of 24-May-2018
HD Live streaming from Space Station
objects crossing your sky now

FENGYUN 1C DEB

Track FENGYUN 1C DEB now!
10-day predictions


NORAD ID: 38722
Int'l Code: 1999-025ETP
Perigee: 654.7 km
Apogee: 1,016.8 km
Inclination: 99.4 °
Period: 101.5 minutes
Semi major axis: 7206 km
RCS: 0.001 m2 (small)
Launch date: May 10, 1999
Source: People's Republic of China (PRC)
Launch site: Taiyaun Space Center, China (TSC)

Note: This is SATELLITE DEBRIS
aabbcc
Your satellite tracking list
Your tracking list is empty




NASA's NSSDC Master Catalog

Two Line Element Set (TLE):
1 38722U 99025ETP 18141.36561333  .00000764  00000-0  28545-3 0  9996
2 38722  99.3918 359.5651 0251186  86.2217 276.7636 14.19034410440536
Source of the keplerian elements: AFSPC